Volver al catálogo

STARLINK-3618

ActivoComunicacionesVLEO
NORAD 51998·PAYLOAD·🇺🇸 United States

Lanzado Mar 9, 2022 desde Cape Canaveral Space Force Station

Loading…

Próximos Pases (próximas 24 horas)

TLE

ActualizadoSource: CelesTrak SupGP

Época: Sep 15, 2026, 01:37 UTC

1 51998C 22025AU  26258.06784722 -.00042560  00000+0 -12574-2 0  2589
2 51998  53.1571 235.3619 0001407  85.3323  37.0268 15.34412279    16

Sigue STARLINK-3618 en tiempo real con AllMySat

Download on the App Store